Location: Habighorst
(52.7089°N, 10.2278°E)
Time: 00:39:43
(UTC+00:00)

Cosmos 2154 Rocket - Pass Details

Date: 13 January 2026
Orbit: 965 x 997 km, 82.9° (Epoch: 17 February)

Event Time Altitude Azimuth Distance (km) Brightness Sun altitude
Rises 05:27:27 0° 190° (S) 3,698 7.1 -17.0°
Reaches altitude 10° 05:29:58 10° 191° (S) 2,750 6.4 -16.6°
Maximum altitude 05:36:18 85° 280° (W) 999 4.0 -15.7°
Drops below altitude 10° 05:42:38 10° 10° (N) 2,747 6.3 -14.7°
Sets 05:45:09 0° 11° (N) 3,694 7.0 -14.4°
